Home > Weather > Kaunas > Past weeks

Flag for Lithuania Weather for the Past 2 Weeks in Kaunas, Lithuania

Now
34 °F

Sunny.


Feels Like: 27 °F
Forecast: 35 / 36 °F
Wind: 8 mph from Southeast

Location: Kaunas

Current Time: Feb 13, 2016 at 11:18:58 AM

Latest Report: Feb 13, 2016 at 10:50 AM


Visibility: 10 mi

Pressure: 29.65 "Hg

Humidity: 93%

Dew point: 32 °F

Location of KaunasLocation

Historic Weather in Kaunas — Graph

°F

Kaunas Temperature Yesterday

Maximum temperature yesterday: 37 °F (at 12:20 PM)
Minimum temperature yesterday: 34 °F (at 12:50 AM)
Average temperature yesterday: 35 °F

High & Low Weather Summary for the Past Weeks

 TemperatureHumidityPressure
High48 °F (Feb 10, 11:50 AM)100% (Feb 11, 10:20 PM)30.12 "Hg (Feb 11, 10:20 PM)
Low27 °F (Feb 6, 1:20 AM)61% (Feb 7, 1:50 PM)29.24 "Hg (Feb 11, 4:50 AM)
Average38 °F82%29.62 "Hg
* Reported Jan 29 10:20 AM — Feb 13 10:20 AM, Kaunas, Weather by CustomWeather, © 2016

Note: Actual official high and low records may vary slightly from our data, if they occured in-between our weather recording intervals... More about our weather records

Advertising

Kaunas Weather History for the Previous 24 Hours

 ConditionsComfort  
Time TempWeatherWind HumidityBarometerVisibility
10:20 AM
Sat, Feb 13
34 °FScattered clouds.9 mph93%29.68 "HgN/A
9:50 AM34 °FScattered clouds.7 mph93%29.68 "Hg5 mi
9:20 AM32 °FLow clouds.7 mph100%29.68 "Hg4 mi
8:50 AM32 °FLight rain. Low clouds.6 mph93%29.68 "Hg4 mi
8:20 AM32 °FRain. Ice fog.8 mph93%29.68 "Hg2 mi
7:50 AM32 °FLight rain. Ice fog.7 mph93%29.68 "Hg1 mi
7:20 AM32 °FRain. Low clouds.7 mph93%29.68 "Hg1 mi
6:50 AM32 °FRain. Low clouds.8 mph93%29.68 "Hg1 mi
6:20 AM30 °FLight snow. Ice fog.5 mph93%29.68 "Hg3 mi
5:50 AM30 °FClear.5 mph93%29.68 "Hg4 mi
5:20 AM30 °FIce fog.5 mph93%29.68 "Hg3 mi
4:20 AM30 °FIce fog.6 mph93%29.68 "Hg3 mi
3:20 AM32 °FOvercast.5 mph87%29.68 "Hg6 mi
2:50 AM32 °FOvercast.7 mph93%29.68 "Hg6 mi
2:20 AM34 °FMostly cloudy.5 mph87%29.68 "HgN/A
1:50 AM34 °FMostly cloudy.6 mph87%29.68 "Hg6 mi
1:20 AM34 °FMostly cloudy.7 mph87%29.68 "Hg6 mi
12:50 AM36 °FOvercast.7 mph81%29.68 "HgN/A
11:50 PM
Fri, Feb 12
36 °FOvercast.10 mph81%29.68 "Hg6 mi
11:20 PM36 °FPassing clouds.8 mph81%29.68 "Hg6 mi
10:50 PM34 °FPartly cloudy.8 mph87%29.68 "HgN/A
10:20 PM36 °FPartly cloudy.8 mph81%29.68 "HgN/A
9:50 PM36 °FPassing clouds.10 mph81%29.65 "HgN/A
9:20 PM36 °FPassing clouds.10 mph81%29.65 "HgN/A
8:50 PM36 °FOvercast.12 mph81%29.65 "HgN/A
8:20 PM36 °FOvercast.8 mph87%29.65 "HgN/A
7:50 PM36 °FMostly cloudy.9 mph87%29.65 "HgN/A
7:20 PM36 °FOvercast.10 mph87%29.65 "HgN/A
6:50 PM36 °FOvercast.9 mph87%29.65 "HgN/A
6:20 PM36 °FMostly cloudy.9 mph87%29.65 "HgN/A
5:50 PM36 °FPartly cloudy.9 mph87%29.62 "HgN/A
5:20 PM37 °FBroken clouds.9 mph87%29.62 "Hg6 mi
4:50 PM37 °FBroken clouds.12 mph87%29.62 "Hg6 mi
4:20 PM37 °FBroken clouds.10 mph87%29.59 "Hg6 mi
3:50 PM37 °FMostly cloudy.9 mph87%29.59 "Hg4 mi
3:20 PM37 °FMostly cloudy.8 mph87%29.59 "Hg5 mi
2:50 PM37 °FCloudy.8 mph93%29.59 "Hg5 mi
2:20 PM37 °FLight rain. Mostly cloudy.10 mph87%29.59 "Hg5 mi
1:50 PM37 °FLight rain. Overcast.8 mph87%29.59 "HgN/A
1:20 PM37 °FMostly cloudy.9 mph87%29.56 "HgN/A
12:50 PM37 °FOvercast.10 mph87%29.56 "Hg5 mi
12:20 PM37 °FOvercast.8 mph87%29.56 "Hg4 mi
11:50 AM36 °FOvercast.7 mph87%29.56 "Hg4 mi
11:20 AM36 °FOvercast.6 mph87%29.56 "Hg5 mi
Weather by CustomWeather, © 2016

See weather overviewHow to use our weather pages